{"data":{"norad_id":68213,"epoch":"2026-09-18T21:18:45.951840Z","epoch_age_seconds":190849,"freshness":"STALE","line1":"1 68213U 26053G   26261.88803185  .00014908  00000+0  46317-3 0  9999","line2":"2 68213  97.2859 135.6479 0001860  95.6345 264.5110 15.33446393 29825","mean_motion":15.33446393,"eccentricity":0.000186,"inclination_deg":97.2859,"raan_deg":135.6479,"arg_perigee_deg":95.6345,"mean_anomaly_deg":264.511,"bstar":0.00046317,"rev_number":2982,"period_min":93.906119351379,"perigee_km":464.26610615177,"apogee_km":466.81195363489,"semimajor_km":6843.6760298933,"source":"CELESTRAK","updated_at":"2026-09-20T09:00:43.833724Z"}}